Location: Izdebno
(52.6670°N, 16.2170°E)
Time: 06:43:32
(UTC+02:00)

Vanguard 2 Rocket - Pass Details

Date: 24 February 2024
Orbit: 555 x 3307 km, 32.9° (Epoch: 24 April)

Event Time Altitude Azimuth Distance (km) Brightness Sun altitude
Rises 13:27:26 0° 198° (SSW) 4,324 11.7 25.5°
Reaches altitude 10° 13:31:18 10° 179° (S) 3,796 11.4 25.3°
Maximum altitude 13:37:30 18° 142° (SE) 3,866 10.6 24.9°
Drops below altitude 10° 13:45:38 10° 107° (ESE) 5,224 10.7 24.4°
Sets 13:52:32 0° 93° (E) 6,736 11.1 23.9°
